Regional Weather Roundup
Issued by NWS

Home | Current Version | Previous Version | Graphics & Text | Print | Product List | Glossary On
Versions: 1 2 3 4 5 6 7 8 9 10 11 12 13 14 15 16 17 18 19 20 21 22 23 24 25 26 27 28 29 30 31 32 33 34 35 36 37 38 39 40 41 42 43 44 45 46 47 48 49 50
000
ASUS43 KLSX 201659
RWRMO

WEATHER SUMMARY FOR MISSOURI
NATIONAL WEATHER SERVICE SPRINGFIELD MO
1200 PM CDT MON OCT 20 2014

NOTE: "FAIR" INDICATES FEW OR NO CLOUDS BELOW 12,000 FEET WITH NO
       SIGNIFICANT WEATHER AND/OR OBSTRUCTIONS TO VISIBILITY.
       CURRENT SKY AND/OR WEATHER CONDITIONS ARE NOT AVAILABLE FOR
       CHILLICOTHE AND FARMINGTON.

MOZ001>031-035>038-043-044-053-054-201800-
...NORTHERN AND WESTERN MISSOURI...

CITY           SKY/WX    TMP DP  RH WIND       PRES   REMARKS
KANSAS CTY INT MOSUNNY   68  48  48 NE8       30.08R
KANSAS C DTWN  SUNNY     70  48  45 VRB6      30.06S
LEE`S SUMMIT   SUNNY     68  50  52 E8        30.07S
ST JOSEPH      SUNNY     68  45  43 E5        30.08S
KIRKSVILLE     SUNNY     66  46  48 N9        30.04S

$$
MOZ066>068-077>081-088>096-101>105-201800-
...SOUTHWEST MISSOURI...

CITY           SKY/WX    TMP DP  RH WIND       PRES   REMARKS
SPRINGFIELD    CLOUDY    66  55  67 W8        30.07S
JOPLIN         SUNNY     68  56  65 W6        30.08F

$$
MOZ032>034-039>042-045>050-055>058-069>072-201800-
...CENTRAL MISSOURI...

CITY           SKY/WX    TMP DP  RH WIND       PRES   REMARKS
COLUMBIA       SUNNY     68  51  54 N9        30.03F
JEFFERSON CITY SUNNY     68  52  56 W7        30.02F
ROLLA          SUNNY     67  54  63 W12       30.01F
SEDALIA        SUNNY     69  51  52 CALM      30.06S
OSAGE BEACH    SUNNY     68  54  60 CALM      30.04S

$$
MOZ051-052-059>065-201800-
...EAST CENTRAL MISSOURI...

CITY           SKY/WX    TMP DP  RH WIND       PRES   REMARKS
ST LOUIS INTL  SUNNY     69  53  56 W9        29.98F
SPIRIT OF STL  SUNNY     68  52  56 NW7       29.98F
ST CHARLES     SUNNY     67  50  54 W9        29.97F

$$
MOZ072>076-082>087-097>100-106>115-201800-
...SOUTH CENTRAL AND SOUTHEAST MISSOURI...

CITY           SKY/WX    TMP DP  RH WIND       PRES   REMARKS
CAPE GIRARDEAU CLOUDY    65  52  62 SW10      30.01F
FARMINGTON     SUNNY     70  54  56 W10       30.02S
POPLAR BLUFF   PTSUNNY   63  50  62 SW7       30.03S
WEST PLAINS    MOSUNNY   69  54  58 W7        30.06F

$$


USA.gov is the U.S. government's official web portal to all federal, state and local government web resources and services.